ECMWFFLT1_925_thetae_096.txt.gz
Theta_e
336 336 336 336 336 336 336 337 336 336 336 336 336 335 335 334 334 334 333 334 333 334 334 334 334 333 333 333 333 333 333 333 332 332 332 332 332 333 334 334 333 332 332 334 333 332 333 332 332 332 332 332 332 332 331 331 331 331 331 330 330 330 330
335 335 335 335 335 336 336 336 336 336 336 336 335 335 335 334 334 334 333 334 333 333 334 334 334 334 333 333 333 333 333 333 332 332 331 332 333 333 333 334 333 332 332 334 333 333 332 331 331 331 332 332 332 331 331 331 331 330 331 330 330 330 330
335 335 334 334 335 335 335 335 336 336 336 335 335 334 334 334 334 333 333 333 333 332 333 333 333 333 333 332 333 332 332 333 332 332 331 332 333 333 332 332 332 332 332 333 333 333 332 331 331 331 332 333 332 331 330 330 331 331 330 330 330 330 329
334 334 334 334 334 334 334 334 335 336 336 336 335 334 333 333 333 333 333 332 333 332 332 333 333 333 333 333 332 332 331 331 332 331 331 331 332 332 330 330 331 332 333 334 333 332 332 332 331 331 332 332 331 331 330 330 331 330 330 330 330 330 329
333 333 333 333 333 334 334 334 334 334 334 334 334 334 334 333 332 332 332 332 332 332 332 332 332 332 333 333 332 332 332 331 331 331 331 331 331 331 331 331 332 332 333 333 332 331 331 331 331 332 332 331 330 331 330 331 331 330 330 330 330 330 330
331 332 332 333 333 334 334 334 334 333 333 334 334 334 334 333 332 332 332 332 331 331 330 331 332 332 332 333 332 332 332 332 332 332 332 332 331 331 332 332 331 331 331 331 330 330 331 331 331 331 331 330 330 330 330 331 330 330 330 330 330 329 329
331 331 331 332 332 334 334 334 333 333 333 333 333 334 333 332 332 332 332 332 331 330 330 331 332 331 332 332 332 332 332 332 333 332 332 332 331 332 333 332 330 330 330 330 330 331 332 332 331 331 331 331 331 330 330 330 329 330 330 329 329 328 329
331 331 331 331 332 333 333 333 333 333 333 333 333 333 333 332 332 332 332 331 331 330 331 331 331 331 332 332 332 332 332 332 332 332 331 331 331 332 332 331 331 331 330 330 331 331 331 331 331 331 331 331 330 330 330 329 329 330 329 329 329 328 328
330 331 331 331 332 332 333 333 333 333 333 333 333 333 333 332 332 332 332 331 331 331 331 331 331 331 332 332 332 332 332 332 332 331 330 330 331 331 331 331 332 331 331 331 331 332 331 331 331 331 331 330 330 330 329 329 330 329 329 329 329 328 327
330 331 331 331 332 332 332 332 333 333 332 332 333 332 332 332 331 331 332 331 331 331 332 332 332 332 332 332 331 331 332 332 332 331 331 331 332 332 332 333 332 331 331 332 331 332 332 331 331 331 331 330 330 329 329 330 330 329 329 329 328 328 327
330 331 331 331 332 333 333 333 332 332 332 332 333 332 330 330 331 332 332 332 332 332 333 333 332 333 332 332 332 331 332 332 331 331 332 332 332 332 332 332 332 331 332 332 332 332 332 332 332 331 330 329 329 329 328 329 330 329 329 329 328 327 327
330 330 330 331 332 332 332 332 332 332 332 332 332 331 330 330 331 332 332 333 333 333 333 333 333 333 333 333 332 332 332 332 331 331 331 332 332 331 332 333 332 331 331 332 332 332 333 333 332 331 331 330 330 330 329 329 329 329 329 329 328 327 327
330 330 330 330 331 331 331 331 331 331 332 332 332 331 330 330 331 332 332 333 333 332 333 333 332 332 333 333 333 333 333 332 332 331 331 331 331 331 332 331 330 331 332 332 332 332 333 333 333 331 330 330 330 330 329 329 330 329 329 329 328 327 327
330 330 330 330 330 330 331 331 331 331 332 332 331 331 331 331 331 331 332 332 332 332 332 333 333 332 333 333 333 333 333 333 332 331 330 331 332 331 331 330 330 331 333 332 332 332 332 333 332 331 330 330 330 331 330 329 329 330 330 329 328 327 326
329 330 330 330 330 330 330 330 330 330 331 331 331 331 332 332 331 331 332 332 332 332 332 332 333 333 333 333 334 333 332 332 331 331 332 332 332 332 331 331 331 332 332 332 332 332 331 331 331 330 330 329 329 331 331 328 328 329 329 328 327 326 326
328 328 329 330 329 330 330 331 330 330 331 331 331 332 332 332 331 331 331 332 333 332 332 333 333 333 333 334 334 333 332 331 331 332 333 333 333 332 332 331 331 332 332 332 332 331 330 330 329 329 330 330 329 329 330 329 327 326 325 325 325 324 324
327 328 329 330 330 330 331 331 330 331 331 331 332 332 331 331 331 331 331 331 332 332 332 333 332 332 332 333 333 332 330 330 330 331 333 333 333 333 333 332 332 332 332 332 332 331 330 330 329 329 329 329 330 329 329 330 328 325 324 324 324 323 324
327 327 328 329 329 330 330 330 330 331 331 331 331 331 331 331 332 331 330 330 330 331 331 331 331 331 331 330 329 328 328 328 329 329 332 333 333 333 333 332 332 332 332 332 332 331 330 331 330 329 329 328 329 330 330 330 328 326 325 324 325 324 324
326 327 327 328 329 330 330 330 330 330 330 330 331 331 331 331 331 331 330 329 329 330 331 331 331 331 330 329 329 328 327 328 329 329 331 332 332 332 333 332 332 332 332 332 333 332 330 330 330 329 329 328 328 330 330 330 329 328 326 325 325 325 325
326 326 327 328 328 328 329 329 330 330 330 331 331 331 331 330 330 331 330 329 329 329 329 330 331 331 330 329 328 328 328 329 329 328 329 331 332 332 333 332 332 332 331 331 331 331 331 331 330 330 330 330 328 329 330 330 329 328 327 326 325 326 326
326 326 326 327 327 328 327 328 329 329 330 330 330 331 331 330 329 329 328 327 327 328 329 329 330 330 328 327 327 327 328 328 328 327 328 329 332 332 332 332 332 331 331 331 330 330 330 331 331 330 331 331 330 330 330 329 328 328 327 326 326 326 326
325 325 325 326 327 327 326 326 327 328 328 328 329 329 329 329 328 327 326 326 326 328 329 329 329 327 327 326 326 327 327 327 326 327 327 328 330 332 332 332 332 331 330 330 330 329 330 330 330 330 330 330 330 330 329 328 328 327 326 326 326 326 326
324 324 324 324 325 325 325 325 326 326 326 326 326 327 327 326 326 325 325 324 325 327 327 327 326 325 326 325 325 326 326 325 325 325 325 326 328 330 331 330 330 329 328 328 327 327 326 326 327 328 328 328 329 329 328 327 327 326 325 325 325 325 324
321 322 323 323 323 324 324 323 324 324 323 323 324 324 324 323 323 324 324 324 324 325 325 325 325 324 325 325 325 325 325 324 324 324 325 326 327 328 328 327 327 326 325 323 321 321 321 320 321 322 322 324 327 328 327 326 325 324 324 323 323 323 323
317 318 319 320 320 321 321 321 321 320 320 321 322 322 321 322 322 322 322 322 323 323 324 325 325 325 325 324 323 324 324 323 323 324 325 325 326 327 327 326 326 324 321 319 318 318 318 318 318 319 319 321 323 324 324 325 325 325 324 323 323 323 323
314 314 315 315 316 316 316 317 318 318 317 318 319 319 318 320 321 320 320 319 320 321 323 324 324 323 322 320 319 321 323 323 324 325 325 326 326 327 326 326 325 322 318 318 319 318 318 318 318 318 318 318 318 319 319 320 321 322 323 324 324 324 324
312 311 312 312 312 312 312 313 314 315 316 316 316 317 317 317 318 318 317 317 318 319 320 321 320 319 318 318 318 321 324 325 326 326 327 326 326 326 325 324 323 322 322 322 321 319 318 319 320 320 321 321 320 319 318 317 317 319 322 324 324 325 325
310 309 310 310 310 310 310 310 310 312 314 314 314 316 317 316 316 317 317 317 317 317 318 318 317 317 318 318 320 324 327 327 328 327 326 326 326 325 325 325 324 324 324 323 323 322 322 323 324 324 324 324 322 320 319 319 319 320 322 324 325 324 323
309 308 309 309 309 309 308 308 308 309 311 312 313 315 317 316 315 316 317 317 316 317 317 318 318 318 319 320 322 326 327 326 325 325 323 323 323 323 324 325 324 322 320 320 322 324 324 324 324 324 324 323 321 320 320 320 320 321 321 322 322 322 321
308 308 307 308 308 308 307 307 307 308 308 309 310 312 314 314 313 314 316 315 314 315 317 318 318 319 320 321 323 323 323 322 321 319 318 319 319 319 320 321 322 322 320 320 321 322 323 323 323 323 323 322 321 320 319 320 320 320 320 320 320 320 320
308 307 307 306 307 307 307 306 306 306 306 306 306 308 310 312 312 313 313 313 312 313 315 317 318 318 319 319 320 319 318 317 315 314 314 315 316 317 317 319 320 321 320 320 319 320 321 323 324 323 322 321 320 319 318 318 319 319 319 319 318 318 318
308 307 306 306 306 306 306 306 306 305 305 304 304 305 308 309 311 311 311 311 311 311 312 313 314 315 316 316 316 316 315 315 314 314 314 314 315 316 317 317 317 318 318 318 319 319 319 320 322 322 321 320 319 318 317 317 317 317 317 316 316 316 317
307 307 306 305 306 306 305 305 305 304 304 303 303 303 305 307 308 308 308 309 310 310 310 311 312 313 313 313 314 313 313 313 314 313 313 313 313 314 314 314 314 314 315 315 316 317 317 318 320 320 319 319 318 317 316 316 316 316 315 315 315 315 315
306 305 304 305 305 306 306 306 305 304 303 303 302 302 302 303 305 306 305 307 308 307 308 310 311 313 313 314 314 313 312 311 312 312 312 311 312 313 312 312 311 311 311 312 312 314 314 315 317 317 317 317 316 315 314 314 314 314 314 314 314 313 313
304 304 304 304 304 304 304 305 305 305 304 303 302 301 301 301 302 302 302 304 305 304 304 307 309 310 311 312 312 313 313 312 312 312 312 310 310 310 309 309 308 307 307 308 308 309 310 310 311 312 311 310 310 310 311 312 312 312 312 311 311 311 311
303 303 303 302 302 302 303 303 303 304 303 302 302 302 301 301 301 301 300 301 302 301 300 302 305 307 307 309 309 309 310 311 310 311 311 308 306 305 305 305 304 303 304 304 305 305 305 305 305 305 305 305 306 307 308 308 309 309 309 309 308 308 308
302 301 301 300 300 300 300 300 300 300 300 300 300 301 301 301 300 300 299 298 299 299 299 299 301 302 303 304 304 305 306 308 308 309 309 306 304 303 302 303 303 303 303 303 303 303 302 301 301 301 301 302 303 304 305 305 305 306 306 306 306 306 306

ECMWFFLT1_925_thetae_102.txt.gz
Theta_e
340 339 339 339 338 338 338 339 338 338 339 339 339 338 337 337 336 335 336 336 335 334 335 336 336 336 336 335 334 334 333 333 333 333 333 332 332 332 331 330 332 333 334 334 333 334 336 336 334 333 333 332 332 332 332 332 332 331 331 331 331 331 331
340 339 339 338 338 338 338 338 338 338 338 339 339 339 338 338 337 336 335 336 336 335 334 335 336 336 336 336 335 334 334 334 333 332 332 332 331 331 331 331 333 334 333 334 333 331 334 336 335 334 333 332 331 330 331 333 332 331 331 331 331 331 331
339 338 338 338 338 337 337 338 338 338 338 338 338 338 338 338 338 337 336 337 337 337 336 335 335 335 335 335 335 334 334 333 333 333 333 332 331 331 331 332 334 334 334 334 334 333 333 334 335 334 333 332 332 331 331 332 332 332 331 330 330 331 330
337 336 336 336 336 336 336 337 337 337 337 336 336 337 337 338 338 338 337 337 337 337 336 336 335 335 335 335 335 334 334 333 333 333 333 333 332 331 331 333 334 333 333 334 334 334 334 334 334 334 332 332 333 333 332 332 332 332 332 331 330 330 330
335 335 335 335 335 336 336 336 336 337 337 335 335 335 335 335 336 337 337 337 337 337 336 336 336 335 335 334 335 334 333 332 332 333 332 333 332 332 332 333 334 334 332 333 333 333 333 333 333 333 333 332 332 332 333 332 332 332 332 332 330 330 330
335 335 335 335 335 335 335 335 335 336 336 335 334 333 332 332 333 334 336 336 336 336 336 336 336 335 335 334 334 334 334 333 332 332 332 332 332 332 333 333 333 333 332 332 333 332 331 331 331 332 332 331 330 331 332 332 332 331 330 331 331 331 330
334 334 334 333 333 334 334 334 334 334 334 334 334 333 332 331 331 332 333 334 336 336 336 336 335 335 334 334 334 334 334 333 333 333 332 333 333 333 333 333 333 333 333 333 333 332 331 330 330 331 331 330 329 329 329 330 331 331 330 330 330 330 330
334 333 332 332 332 333 333 334 334 334 333 333 334 334 333 331 330 330 331 332 335 336 336 336 335 334 334 334 334 334 334 333 333 333 333 333 333 332 332 333 332 333 334 334 333 332 331 331 330 329 329 331 330 329 328 329 330 330 331 330 330 329 330
334 333 333 333 333 333 333 333 334 333 333 333 334 333 333 331 329 329 331 331 331 333 335 335 335 334 334 334 334 334 334 333 333 333 331 332 332 332 332 332 333 333 334 334 332 331 331 332 330 329 329 330 331 330 330 330 330 330 329 329 330 329 329
332 333 333 333 333 332 332 333 332 332 333 333 333 332 332 331 330 329 330 330 330 332 335 335 334 333 333 333 333 334 332 332 332 331 330 331 332 333 333 332 333 333 333 333 332 332 333 333 332 331 330 329 330 331 331 330 331 330 329 329 330 329 329
331 332 332 333 332 332 333 333 331 331 331 331 331 331 331 331 330 330 330 331 330 331 333 334 333 333 333 333 333 332 332 332 332 331 331 331 332 333 333 333 333 333 332 332 332 333 334 334 333 332 331 329 329 330 329 330 333 331 328 329 329 329 329
330 331 331 332 331 332 332 332 331 330 330 329 329 330 330 330 330 330 330 330 329 331 333 334 333 333 333 332 331 331 331 332 332 331 330 330 332 333 333 332 332 332 332 332 333 333 332 332 332 331 330 329 329 330 327 329 334 333 329 329 329 329 329
329 330 331 331 331 331 331 331 331 330 330 330 330 330 329 329 330 330 330 329 329 330 333 334 333 333 332 331 331 330 330 330 330 330 330 330 332 333 333 333 333 332 332 331 332 332 331 331 331 331 331 330 330 330 327 326 331 332 330 330 329 328 329
328 329 330 330 330 331 331 330 330 330 329 330 330 330 330 330 330 330 330 330 330 330 332 332 332 331 332 331 330 330 329 329 329 329 331 332 332 332 332 333 333 332 331 331 332 333 332 331 330 332 333 331 330 330 329 328 329 330 330 330 329 329 328
327 329 330 330 330 330 330 329 330 330 329 330 330 330 330 329 330 330 330 330 330 331 331 331 331 331 332 331 331 330 330 330 330 330 330 332 332 332 332 332 333 332 332 333 333 333 333 332 331 332 331 330 329 330 330 329 329 330 330 329 329 329 328
328 329 330 330 330 329 329 329 329 329 329 329 329 330 329 330 330 330 331 330 329 329 330 330 331 332 332 331 331 331 331 331 332 331 330 331 331 331 331 330 331 333 333 334 334 334 334 332 332 331 328 328 328 328 330 330 330 330 329 329 330 329 328
327 328 329 329 329 329 328 329 329 329 329 329 329 329 329 330 330 330 331 330 329 330 330 330 331 332 332 332 332 332 332 331 332 331 330 330 329 329 328 328 330 333 333 333 334 334 333 332 331 330 327 327 328 328 329 329 330 331 330 330 329 328 328
325 326 327 327 327 328 327 328 328 328 328 328 328 329 329 329 329 330 330 330 330 330 330 330 331 331 331 331 331 331 331 331 331 331 330 329 328 328 329 329 331 332 332 332 333 333 332 332 330 329 327 328 329 329 328 329 330 330 329 329 329 327 327
322 322 323 324 324 325 326 326 327 327 326 328 328 328 329 329 329 330 329 329 329 329 329 329 330 331 330 331 330 331 330 330 330 330 330 330 331 331 331 331 330 330 330 331 332 331 330 330 329 328 328 330 329 329 329 329 329 329 328 328 327 326 325
320 320 320 321 322 322 323 324 325 325 325 326 327 327 328 327 327 327 328 327 328 328 328 328 329 330 330 330 329 330 329 328 329 329 329 330 330 331 330 330 330 330 330 330 330 328 328 329 328 328 328 329 329 330 330 328 327 327 327 326 325 324 323
318 319 319 319 319 319 320 320 321 322 323 325 326 326 326 326 326 326 326 326 326 326 326 327 328 328 329 328 328 328 327 327 327 327 327 329 330 330 329 328 329 329 329 328 328 328 328 328 328 328 328 329 329 329 329 327 325 326 326 326 325 324 323
317 317 317 317 317 316 316 316 317 318 320 322 323 324 325 325 325 325 324 325 324 323 324 325 326 326 326 326 325 326 326 326 327 326 327 328 329 329 328 327 328 328 328 328 328 328 328 329 330 329 329 330 330 329 328 327 325 325 325 326 326 326 325
316 316 316 316 315 314 314 314 314 315 316 318 319 321 322 322 321 320 321 322 322 322 322 322 323 324 325 324 324 325 325 325 326 327 327 328 328 327 327 328 328 328 329 329 329 329 329 330 330 330 329 330 330 329 327 326 325 324 324 324 324 325 326
315 315 315 315 314 313 312 312 312 313 314 315 316 318 319 319 317 317 318 318 319 320 321 321 322 323 324 324 324 324 324 325 326 326 326 326 326 327 328 328 328 327 327 327 328 330 329 329 329 329 328 327 328 328 326 326 325 324 324 324 324 323 324
315 315 314 314 313 312 311 311 311 311 311 312 312 313 314 314 314 315 316 316 317 318 320 320 321 321 322 322 323 324 324 324 324 324 324 325 325 326 326 326 326 325 324 324 325 327 328 328 328 329 328 326 327 327 326 325 325 324 324 324 323 323 323
315 314 314 313 312 311 310 309 309 309 309 310 310 310 310 310 311 312 314 315 316 318 319 320 321 321 322 322 323 324 324 323 324 324 324 324 324 325 325 325 324 323 322 321 321 323 324 325 325 325 325 325 325 325 325 325 325 324 323 324 323 324 325
314 314 313 312 312 310 310 309 308 308 308 308 308 308 308 308 309 310 311 312 315 317 318 320 321 322 323 323 323 324 324 324 323 322 322 322 322 323 324 323 323 323 322 321 320 320 320 322 323 322 322 322 321 322 323 324 324 323 323 324 324 324 324
313 313 312 311 311 310 309 308 307 307 306 306 306 306 306 306 307 309 309 311 313 315 317 318 320 321 322 322 322 322 323 323 323 321 321 321 321 322 322 323 322 322 322 322 322 321 321 323 323 321 319 319 319 320 322 324 324 324 324 325 325 325 324
312 312 312 310 310 309 308 308 308 307 306 306 305 305 304 305 306 308 309 309 310 312 314 316 318 319 319 319 320 321 322 322 322 321 320 320 320 320 320 321 322 321 321 322 323 324 324 324 323 321 318 318 318 318 319 321 323 324 324 325 325 325 324
311 311 310 309 308 308 307 307 308 307 306 306 305 304 304 303 304 306 308 308 308 309 311 314 316 317 317 317 317 318 319 319 319 318 318 318 318 317 316 317 319 320 320 320 321 323 324 323 322 322 321 319 318 318 317 317 319 320 320 320 320 320 320
310 309 308 307 307 307 307 307 307 306 306 305 304 304 303 302 302 303 304 305 307 308 309 311 313 314 314 315 315 314 315 316 316 315 315 316 317 315 314 315 316 316 317 318 319 321 321 321 321 321 321 319 318 318 318 318 318 318 318 317 317 317 317
308 307 306 305 305 306 306 306 306 306 306 305 304 303 302 302 301 301 301 302 304 306 307 308 310 312 312 313 314 313 313 313 313 312 311 312 314 314 314 313 314 314 314 315 316 317 317 318 320 320 319 318 318 318 318 319 319 318 317 317 316 316 315
305 305 304 303 303 303 303 304 304 304 304 304 304 302 301 301 300 300 300 300 301 302 303 305 307 310 311 311 312 312 311 310 309 309 309 308 309 310 311 311 312 312 313 314 314 315 315 316 318 319 319 318 318 317 317 317 317 317 316 316 315 314 313
304 304 303 303 303 302 302 302 302 302 302 303 303 302 300 300 299 299 299 299 299 300 301 302 304 306 308 309 309 310 310 309 308 308 307 305 305 306 307 307 308 309 311 312 313 314 315 316 317 317 316 315 315 315 315 314 314 314 313 313 313 312 311
303 303 302 303 303 303 302 302 302 302 302 302 302 301 300 300 300 299 298 298 298 299 300 300 301 302 303 305 306 306 307 307 307 306 305 304 304 304 304 305 305 306 307 309 310 311 312 313 313 312 311 312 312 312 312 311 311 311 311 310 311 310 310
303 302 301 301 302 302 302 302 302 302 302 302 302 302 301 301 301 301 300 298 298 298 299 299 300 300 301 302 303 303 304 304 305 304 304 303 303 303 302 302 302 303 304 304 305 306 307 307 307 307 306 307 307 308 308 308 308 308 308 308 308 309 308
303 303 301 300 300 300 300 300 301 301 302 302 301 302 301 301 301 301 301 299 299 298 298 298 299 299 300 300 300 301 302 302 303 303 302 302 302 302 301 301 301 301 301 302 303 304 304 303 303 303 303 303 303 304 304 304 305 306 306 306 307 307 307

ECMWFFLT1_925_thetae_105.txt.gz
Theta_e
339 338 338 337 337 337 337 337 337 336 336 336 336 336 336 335 336 336 335 335 335 335 335 335 334 334 334 335 335 335 334 335 334 333 334 334 333 332 332 331 330 330 331 331 331 333 335 335 333 332 331 331 331 331 332 331 331 330 331 331 330 330 330
336 335 334 334 334 334 334 334 335 336 337 336 336 336 334 334 334 334 334 333 334 335 335 335 335 334 335 335 336 335 335 334 331 331 333 333 333 333 332 332 331 330 330 331 331 331 333 334 334 333 331 331 331 331 331 332 331 331 331 330 330 329 330
334 334 334 334 334 334 334 334 334 335 336 335 336 336 334 334 334 333 332 331 333 335 335 336 335 335 335 335 336 335 335 334 331 330 333 333 333 333 332 332 331 330 330 331 331 331 332 334 334 333 332 332 331 331 330 331 332 331 331 330 330 330 330
335 334 334 334 334 334 334 334 334 334 334 335 335 335 334 334 334 334 332 331 332 332 333 334 335 335 335 335 335 335 334 333 331 331 333 333 333 331 331 332 331 331 331 331 331 331 332 333 334 333 332 332 331 330 330 331 332 331 331 330 330 331 330
334 334 334 333 333 333 333 333 333 333 333 334 334 333 333 334 334 333 332 332 331 330 330 331 332 333 333 332 332 332 333 333 331 332 333 334 332 330 331 331 331 331 331 331 330 331 332 332 333 332 332 332 332 331 330 331 331 330 331 331 330 330 330
333 333 333 333 332 333 333 333 333 333 333 332 332 332 333 333 334 333 333 332 331 329 329 330 330 331 330 330 331 331 332 331 330 331 333 333 332 332 331 330 331 331 332 331 330 330 331 331 331 331 332 332 332 331 331 331 331 330 330 331 330 330 330
331 331 332 332 332 332 332 332 332 332 331 331 330 331 331 332 333 333 333 331 330 329 329 330 330 330 329 329 331 333 332 331 330 330 330 332 332 332 332 331 330 331 332 332 332 331 332 332 331 331 332 331 331 329 330 331 331 330 329 330 330 330 330
329 330 331 331 331 332 331 331 332 331 330 330 329 329 329 330 330 331 331 331 329 328 329 330 330 329 329 329 330 333 334 332 332 331 329 331 333 332 332 331 331 332 333 333 333 332 332 332 331 331 331 331 331 329 328 329 329 329 329 329 329 329 329
328 329 330 330 331 332 331 331 331 330 330 329 329 329 329 329 329 330 330 329 329 328 328 330 330 329 330 329 330 333 334 333 333 332 330 331 332 331 331 331 332 333 333 333 333 332 332 331 330 331 330 330 331 330 329 328 327 328 329 329 329 329 329
328 328 329 330 331 331 331 330 330 330 329 329 329 330 330 330 329 329 329 328 328 329 329 330 330 330 329 330 330 332 334 333 334 333 332 330 329 329 330 331 332 333 333 333 333 333 333 332 331 331 330 329 330 331 330 330 329 328 328 328 328 328 328
327 328 329 330 330 330 330 329 329 329 329 329 329 329 330 330 329 329 329 329 329 329 330 330 330 330 330 330 330 331 332 332 332 332 331 330 328 328 329 330 331 333 333 333 334 334 333 332 331 330 330 329 329 329 329 330 330 328 328 329 328 328 328
327 328 329 330 330 329 329 329 329 329 329 329 329 329 330 330 329 329 329 329 329 329 330 330 330 330 330 331 331 331 331 331 331 330 329 329 328 328 329 329 330 332 332 332 334 333 333 332 331 329 329 329 329 328 327 328 330 330 328 328 328 328 328
328 328 329 329 329 329 328 329 329 328 329 329 329 329 329 329 330 329 329 329 330 330 330 330 329 330 331 331 331 331 330 330 329 329 329 329 328 328 329 329 329 331 332 333 333 333 333 332 331 329 329 329 329 328 327 327 330 329 328 328 328 328 328
327 327 328 328 328 328 328 328 328 328 328 328 329 329 329 329 329 329 329 329 329 330 330 330 329 329 330 330 329 329 329 329 328 328 328 328 328 329 330 330 330 331 331 332 333 333 333 331 330 330 329 328 327 328 328 327 328 327 327 328 328 327 328
324 325 325 325 326 326 327 327 326 327 328 328 328 329 329 329 329 330 330 329 328 329 329 330 330 330 330 330 328 328 328 327 327 328 328 328 328 329 330 331 332 331 330 331 333 333 333 330 329 330 329 328 328 328 328 327 327 326 327 328 328 327 328
322 322 322 323 323 324 325 325 325 326 327 328 328 328 328 329 329 329 330 329 329 328 329 329 330 330 330 329 328 328 327 328 328 328 328 329 329 330 331 330 331 330 330 331 332 331 331 330 330 331 330 328 328 329 328 327 327 327 328 328 328 327 327
320 320 319 320 321 321 322 323 323 324 326 326 326 327 327 328 328 328 329 329 328 328 328 329 329 330 330 329 328 328 329 329 329 328 327 329 329 330 330 329 329 329 329 330 330 328 327 328 330 331 328 326 327 328 328 328 328 328 329 328 328 328 328
318 318 317 317 318 318 319 321 321 322 323 324 325 326 326 326 326 326 326 326 326 327 328 329 329 330 329 328 328 328 328 328 328 327 327 328 328 327 328 329 329 329 328 328 328 327 326 327 328 329 327 326 327 327 328 329 329 329 329 329 329 328 327
317 317 316 315 315 316 317 319 320 320 320 321 323 324 324 324 323 323 323 324 324 325 327 328 328 329 328 328 328 328 328 328 328 327 327 327 327 327 327 327 328 328 327 327 327 328 328 328 328 329 328 328 327 327 328 328 329 329 328 329 329 327 327
316 315 315 314 314 314 315 316 318 319 319 319 319 320 320 320 321 321 321 322 322 323 325 327 327 326 326 326 327 326 326 326 327 327 327 327 328 328 327 327 328 327 327 327 327 328 328 329 329 329 328 328 328 327 327 328 328 327 327 328 327 327 326
314 314 313 313 312 312 313 314 315 316 317 317 316 315 316 317 318 319 320 320 321 321 323 324 325 324 324 325 325 325 325 325 327 328 328 328 328 327 327 327 326 326 327 327 327 327 328 328 328 328 328 329 329 328 328 328 327 326 325 326 326 326 325
314 313 312 312 311 311 312 312 312 313 314 314 313 313 313 315 316 318 319 320 321 321 322 322 323 323 324 325 324 324 325 325 326 328 328 327 327 327 326 327 326 326 326 326 327 327 328 328 328 328 328 329 330 329 328 327 326 325 324 325 324 324 324
313 312 311 310 310 310 310 310 310 310 311 312 312 312 312 313 314 315 317 319 320 321 322 323 323 323 323 324 324 324 324 324 325 326 326 326 326 326 325 326 327 327 328 328 328 328 327 327 328 328 328 328 329 329 327 326 325 324 324 324 324 324 323
312 312 311 310 309 309 309 309 308 308 309 309 310 310 311 311 311 312 315 317 318 320 321 322 323 323 323 323 323 323 323 323 324 324 325 325 325 324 324 325 325 326 326 328 329 328 327 327 329 330 328 327 328 329 327 326 325 325 324 324 324 324 323
311 311 310 309 308 308 307 307 307 307 307 307 307 308 308 308 309 310 313 316 317 317 318 320 322 323 323 323 323 323 323 323 324 324 324 324 324 323 323 323 324 323 323 325 327 328 327 327 329 330 328 327 328 328 327 325 324 324 323 323 323 323 323
310 310 309 309 308 307 307 306 306 305 305 305 305 305 305 306 308 309 312 313 314 316 317 318 320 321 322 322 322 323 323 323 323 323 323 322 322 321 321 321 321 321 321 322 324 324 324 324 326 327 327 327 327 326 326 325 323 322 323 323 323 322 322
309 309 308 308 308 307 306 306 305 305 304 304 304 304 304 305 306 308 309 310 311 313 314 316 317 319 320 320 320 321 321 321 321 321 321 321 320 321 320 320 320 320 319 319 321 321 321 321 322 322 323 324 324 324 324 324 323 323 323 323 322 322 322
308 308 308 307 307 307 306 305 304 304 303 303 302 302 302 303 304 305 306 307 309 310 312 313 315 317 317 316 316 317 318 318 319 318 318 318 319 319 319 320 321 321 320 319 320 320 319 319 320 320 321 322 323 324 324 324 323 323 322 322 322 323 324
306 306 306 306 306 306 305 305 303 303 302 302 301 301 302 302 302 303 304 306 307 308 310 312 313 314 315 314 312 312 312 313 314 314 314 314 316 316 316 317 319 320 321 321 320 319 318 318 319 319 318 318 319 320 320 320 321 322 322 322 322 323 323
304 304 305 305 305 305 304 304 303 302 301 301 301 300 300 301 301 301 302 303 304 305 307 310 312 313 313 313 312 310 309 308 308 309 309 310 311 313 314 315 315 317 319 321 321 320 318 318 318 318 317 316 316 316 316 316 317 318 318 319 319 320 321
302 302 303 303 303 303 303 302 301 300 300 300 300 300 300 300 300 301 301 302 302 303 304 306 309 310 311 312 311 310 309 308 307 307 307 307 307 309 311 313 313 314 316 317 319 320 319 317 316 316 316 316 317 317 316 316 315 315 315 315 316 316 317
303 302 302 302 302 302 302 301 301 300 300 299 299 299 299 300 300 300 300 301 302 302 302 303 305 307 308 310 310 309 309 308 306 305 306 305 305 306 307 308 310 312 314 315 317 318 318 317 316 315 315 316 318 318 317 316 316 315 314 314 314 314 315
302 302 302 302 302 302 302 301 301 301 301 301 300 299 298 299 299 299 299 300 301 301 302 302 303 304 305 306 307 307 307 305 304 303 304 304 304 304 304 305 306 308 310 312 314 315 316 316 315 315 315 315 315 315 316 316 315 314 313 312 312 312 312
300 300 301 301 301 302 302 301 302 301 301 301 301 300 299 299 298 298 299 299 300 300 301 301 302 302 303 304 304 305 304 303 302 302 302 302 302 303 303 303 303 304 306 307 309 310 311 312 312 312 312 312 311 312 314 314 313 312 311 310 309 309 309
298 298 299 300 301 301 301 301 301 301 300 300 301 301 300 299 299 298 298 299 299 299 300 300 301 302 302 302 302 303 302 302 302 302 301 301 301 302 302 302 302 302 303 303 304 305 306 307 308 308 308 309 309 310 311 311 311 311 310 309 308 308 308
296 296 297 298 299 300 301 301 302 301 300 300 300 301 300 299 299 298 298 298 299 299 300 300 300 301 301 301 301 301 301 302 302 302 301 301 301 301 301 301 301 301 301 301 301 302 302 303 304 304 305 306 307 307 308 308 309 309 308 308 307 307 307
296 296 296 296 296 297 298 299 301 301 300 299 299 300 300 299 298 297 297 297 298 299 300 300 300 300 301 301 301 301 301 301 301 301 301 301 300 300 300 300 300 300 300 300 300 300 301 301 301 301 302 302 303 304 305 306 306 307 307 306 306 306 306

ECMWFFLT1_925_thetae_111.txt.gz
Theta_e
336 336 335 334 333 333 332 332 332 332 331 331 330 331 331 330 331 331 332 333 333 333 333 333 332 332 332 332 332 332 332 333 334 334 334 334 333 333 333 332 330 329 330 329 330 331 333 333 331 330 330 330 330 330 330 330 330 331 330 329 329 326 324
334 334 334 333 332 332 331 331 331 331 330 330 330 330 329 329 329 329 330 331 331 331 332 332 332 332 332 332 332 331 331 331 332 333 334 334 334 333 333 332 331 331 331 330 329 329 330 332 332 331 330 329 329 329 330 330 330 330 330 329 330 328 325
333 333 332 332 331 331 331 331 330 330 330 330 330 329 328 328 328 328 328 328 329 329 329 330 330 330 331 332 332 331 331 330 331 331 332 334 334 333 333 333 332 331 330 329 328 328 328 329 330 331 330 329 329 329 329 330 329 330 330 329 330 328 326
332 332 331 331 331 331 331 330 330 329 329 329 329 328 328 327 328 328 328 328 328 328 328 328 328 329 330 331 331 331 331 330 330 330 330 332 333 333 333 333 332 331 330 328 328 328 328 328 329 331 330 329 329 329 329 329 329 329 330 329 329 329 326
330 330 330 330 331 331 330 330 329 329 329 328 328 328 328 328 328 328 328 328 328 327 327 327 328 329 329 330 330 330 330 330 329 329 329 330 331 331 331 330 331 331 330 329 328 328 329 329 329 331 331 330 330 330 329 329 329 329 329 329 329 329 328
328 329 329 330 330 330 330 329 328 328 328 328 328 328 328 328 328 328 328 328 327 326 326 327 327 328 329 329 329 329 329 329 329 329 329 329 329 329 329 329 329 329 329 329 329 329 328 329 329 330 330 330 331 330 330 330 329 329 329 329 329 329 329
327 328 329 329 329 329 329 328 328 328 327 326 326 327 328 328 328 328 328 327 327 327 327 327 328 328 329 329 328 327 328 327 327 328 329 329 328 328 329 329 328 329 329 329 329 329 328 328 329 329 330 330 330 330 330 330 329 329 329 329 330 329 330
328 328 329 329 328 328 327 328 327 326 326 325 325 326 327 327 328 328 328 327 328 328 328 328 328 328 328 328 328 328 328 327 327 328 329 329 329 329 329 329 329 329 329 329 329 329 328 328 329 329 329 330 331 330 330 330 329 329 329 329 329 329 330
328 328 328 328 327 327 326 326 325 325 325 324 325 326 325 326 327 327 327 327 328 328 328 329 329 329 328 328 329 329 329 329 328 329 328 328 329 329 329 329 329 329 329 329 329 329 329 329 329 329 329 329 331 332 332 330 329 329 329 329 329 329 329
327 326 327 326 326 325 324 324 325 325 326 325 325 325 325 325 326 326 326 326 326 327 327 328 329 328 329 329 329 329 329 328 328 328 328 328 328 328 329 329 329 329 329 329 329 329 330 330 329 330 329 329 329 331 332 332 330 329 329 329 328 329 329
326 325 325 325 325 325 324 323 324 325 326 325 325 325 325 325 325 325 325 325 326 327 327 328 328 328 328 328 328 328 328 328 327 327 328 328 328 329 329 329 329 329 329 329 330 329 329 330 329 329 329 329 329 329 330 332 331 328 328 329 329 329 329
324 324 324 324 324 324 323 322 324 325 325 324 324 324 324 324 324 324 325 326 327 327 328 327 327 328 328 327 327 327 327 327 327 327 327 327 328 328 328 329 329 329 329 329 329 328 328 329 329 329 329 329 329 329 328 330 332 330 328 329 329 329 329
322 322 322 323 323 322 322 322 322 324 324 324 323 323 323 324 324 324 326 326 327 327 327 327 326 327 327 327 327 327 327 327 327 327 327 327 328 328 328 329 329 328 328 328 328 328 329 329 330 329 329 329 328 329 327 327 330 330 328 328 329 329 329
319 319 320 321 321 321 321 321 322 323 323 323 322 321 322 323 323 324 325 326 325 325 325 326 327 327 327 327 327 327 327 327 327 327 327 327 328 328 328 328 328 328 328 328 329 329 329 329 330 330 329 328 328 328 327 326 327 328 327 327 329 329 329
317 317 318 319 319 320 320 320 321 322 322 321 322 321 321 322 322 322 323 324 323 323 324 325 326 326 326 326 327 327 327 326 326 327 327 327 327 327 327 328 328 328 328 328 328 329 329 329 329 329 328 328 328 327 327 326 326 327 326 327 328 328 329
316 317 317 318 318 318 318 318 320 320 320 320 321 320 320 320 320 321 321 322 323 323 323 324 325 325 325 325 326 326 327 326 326 326 326 326 326 326 327 327 327 327 327 328 328 327 328 327 328 328 327 327 327 327 327 327 325 325 326 326 327 327 327
315 316 316 316 316 316 316 317 318 319 319 319 319 319 319 319 319 319 320 321 322 323 323 324 324 325 325 326 326 326 327 327 326 326 326 326 326 326 326 326 326 325 326 326 327 326 326 326 327 327 326 326 326 327 326 326 326 326 326 326 326 327 327
314 314 315 315 314 315 315 316 317 317 317 317 317 318 318 317 317 318 319 319 320 321 322 323 323 324 326 326 326 326 327 327 326 326 326 326 325 325 325 325 325 325 325 325 325 325 325 325 326 327 327 326 326 326 326 326 326 325 326 326 326 326 327
312 312 313 313 313 313 313 314 315 315 315 316 316 317 317 315 315 316 317 318 319 319 320 322 323 323 325 325 325 325 324 324 324 324 324 324 324 325 325 325 325 325 325 325 325 324 325 325 326 326 327 326 326 326 325 326 327 326 326 326 326 325 326
310 310 311 311 311 311 311 312 313 313 314 314 315 315 315 314 314 315 316 317 318 318 319 321 322 323 323 323 323 323 323 322 322 321 321 321 322 323 323 323 323 323 324 325 324 325 325 325 325 325 326 326 326 326 325 325 326 326 325 326 326 325 325
309 309 309 310 310 310 310 311 312 313 313 313 313 313 313 313 313 313 314 315 316 317 318 319 321 322 322 321 321 321 321 321 321 320 319 319 319 320 320 320 319 320 322 324 324 325 325 325 325 325 326 326 326 326 326 325 325 326 325 326 326 325 325
308 308 308 308 308 309 309 310 311 312 313 312 312 311 310 311 312 312 312 313 315 317 317 316 316 319 320 319 319 319 319 319 319 319 317 317 317 318 318 318 317 318 320 322 323 325 325 325 325 325 325 325 325 325 325 325 325 325 325 326 325 325 324
308 307 307 307 307 308 308 310 311 311 311 311 311 311 310 311 311 311 311 312 313 315 315 314 314 316 317 317 316 316 315 315 315 315 314 315 316 317 317 317 317 317 319 320 321 323 324 325 325 325 325 325 325 324 324 325 325 325 325 325 325 324 323
307 306 306 306 306 307 308 309 309 309 309 309 310 310 311 311 310 309 310 310 311 313 312 312 313 315 315 315 314 314 314 313 313 312 312 313 314 316 317 316 316 317 318 318 319 320 322 323 324 324 324 324 325 325 324 324 325 325 324 324 324 324 323
305 305 305 305 305 306 307 308 308 308 308 308 309 310 310 310 309 309 309 309 310 310 310 311 313 313 313 313 313 313 313 313 312 310 310 311 312 314 315 315 315 316 317 318 318 319 319 320 321 322 322 323 324 324 324 324 324 324 324 324 324 324 324
303 303 304 304 304 305 306 306 306 306 306 306 308 308 308 308 308 308 308 308 308 308 309 310 312 312 312 312 312 312 311 311 310 308 308 310 310 312 313 313 313 314 315 317 318 318 318 318 319 320 320 321 321 321 322 322 322 322 323 323 323 323 323
302 302 302 302 303 304 304 304 303 304 304 305 306 306 306 306 306 306 305 305 305 305 306 308 309 310 311 311 311 310 309 309 309 308 308 309 310 310 311 311 312 313 314 315 315 316 316 316 317 317 318 318 317 318 319 320 321 321 321 321 321 322 322
302 301 301 302 302 302 302 302 302 302 302 303 303 303 303 303 303 303 303 303 303 303 304 305 307 308 308 308 307 307 306 307 307 307 307 307 308 309 309 310 310 311 312 313 314 315 314 315 315 316 315 314 314 314 315 315 316 318 319 320 319 320 320
301 301 301 301 301 301 301 300 300 301 301 302 302 302 302 302 302 302 302 302 303 302 302 304 305 305 305 305 304 303 303 303 303 303 303 304 305 306 307 308 308 309 309 311 313 314 314 314 313 313 313 312 311 312 311 310 311 314 316 317 317 317 319
300 300 300 300 300 300 300 300 300 301 301 301 301 301 301 301 301 301 301 302 302 301 301 302 303 304 304 303 303 302 301 301 301 301 301 301 302 303 304 304 305 306 307 308 310 312 313 313 312 311 311 311 310 310 310 310 311 312 313 314 314 315 316
299 299 299 299 299 299 299 299 300 300 301 300 300 300 300 300 301 301 301 301 301 301 301 301 301 302 302 302 302 301 301 301 300 300 300 300 300 300 301 302 302 303 304 305 307 309 310 310 309 308 308 308 308 308 308 309 310 311 311 312 312 313 313
300 299 299 299 298 299 299 299 299 300 300 300 300 300 300 300 300 300 300 300 300 300 300 300 300 300 301 301 301 301 300 300 300 300 300 300 300 300 300 300 300 301 302 302 304 305 306 307 306 306 306 306 305 305 305 306 307 308 308 309 308 309 309
300 299 299 298 298 298 298 298 299 299 299 299 299 299 300 300 300 300 300 300 300 300 299 299 300 300 300 300 300 300 300 300 300 300 300 300 300 300 300 300 300 300 300 300 301 302 303 304 304 303 304 303 302 303 304 305 305 305 305 305 306 306 306
300 299 298 298 298 298 298 298 298 298 298 298 298 299 299 299 299 300 299 299 299 299 299 299 299 299 299 300 300 300 300 300 300 300 300 300 300 300 300 300 299 299 299 299 299 300 300 301 302 302 302 302 301 302 304 304 304 304 304 304 304 304 304
300 299 298 298 298 298 297 298 297 297 297 297 297 297 297 298 299 299 300 300 300 300 300 300 300 300 300 300 300 300 300 300 300 301 300 300 300 300 299 299 299 299 299 299 299 299 298 298 299 299 300 301 301 302 302 302 302 303 303 303 303 303 302
300 299 298 298 298 297 297 297 297 297 297 296 296 296 296 297 298 299 299 299 300 300 300 300 300 300 300 300 300 300 300 300 300 301 301 300 300 300 300 300 299 299 299 299 298 298 298 297 298 298 298 299 300 300 301 301 301 302 302 302 302 302 302
299 299 298 298 298 297 297 297 297 297 296 297 296 296 297 297 298 298 298 298 299 299 299 299 299 299 299 299 300 300 300 300 300 300 300 300 300 300 299 299 299 299 299 299 298 298 298 297 297 297 297 298 298 299 299 300 300 300 300 300 300 301 301

ECMWFFLT1_925_thetae_114.txt.gz
Theta_e
333 333 332 332 332 331 331 330 330 330 330 329 329 329 328 328 327 327 327 327 328 328 328 328 327 326 326 327 326 327 327 328 330 332 332 332 332 331 332 332 332 331 329 327 327 328 331 332 330 329 329 330 330 330 330 330 329 329 329 329 328 328 328
332 332 332 331 331 331 330 329 329 329 329 329 328 328 327 327 327 327 327 327 327 327 327 327 327 326 326 326 326 327 327 327 328 330 331 331 331 331 332 332 332 330 330 327 326 327 329 330 331 331 330 330 330 330 330 329 329 329 329 329 329 328 329
332 331 331 331 330 330 329 329 329 329 329 328 327 327 327 327 327 327 327 327 327 326 326 326 326 325 325 325 326 327 328 329 329 329 329 329 329 329 329 331 331 330 329 328 326 327 328 328 330 330 329 329 330 330 330 330 330 330 330 329 329 329 329
331 330 330 330 330 330 329 329 329 328 328 328 327 327 327 327 327 327 327 326 326 325 325 325 326 326 325 325 326 328 329 329 329 329 328 328 329 329 328 329 330 330 329 329 328 329 329 329 329 329 329 329 329 329 329 330 329 330 329 329 329 329 329
329 329 329 329 329 330 329 328 328 327 327 326 326 326 325 326 327 326 326 325 325 325 325 326 327 327 327 326 327 328 328 329 328 328 328 329 329 328 328 328 329 329 329 329 329 328 329 329 329 329 329 329 329 330 329 329 329 329 329 329 329 329 329
327 328 328 329 328 328 327 327 326 325 325 324 324 324 324 324 325 325 325 324 324 325 326 327 328 328 328 328 327 328 328 328 328 327 327 327 327 327 328 328 328 328 328 328 328 328 328 329 329 329 328 328 329 329 329 329 329 329 329 329 329 329 329
327 327 327 327 327 326 326 325 325 324 325 324 323 323 323 323 323 324 323 323 324 325 326 327 328 328 328 328 328 328 328 328 328 328 328 327 327 327 328 329 329 329 329 328 328 328 328 328 328 328 328 328 328 329 329 329 329 329 329 329 329 328 329
327 327 327 326 325 325 324 324 324 324 325 325 323 322 323 323 323 323 323 324 325 325 326 326 326 327 327 328 328 328 328 328 327 328 328 328 328 328 329 329 329 329 329 329 328 328 329 328 328 328 328 329 330 330 330 330 330 329 329 329 329 329 328
326 326 326 325 325 324 323 323 323 324 324 323 323 322 322 323 323 323 324 324 325 325 325 326 326 326 327 327 327 327 327 327 327 327 327 327 328 328 328 328 329 329 328 329 329 329 329 329 329 328 328 329 330 331 331 331 330 329 329 329 329 329 328
325 325 325 325 324 324 322 321 323 324 323 322 322 321 322 323 323 324 324 324 325 325 326 326 325 326 326 326 327 326 327 327 327 327 327 327 327 327 328 328 328 329 329 329 329 329 329 329 329 328 328 328 328 330 331 332 331 329 329 329 329 329 328
324 324 324 324 323 322 321 320 321 322 323 322 321 321 322 323 323 324 324 324 324 325 326 326 326 326 326 326 327 326 326 326 326 327 327 326 326 326 327 327 328 328 329 329 329 329 328 329 329 328 328 328 328 328 330 331 331 329 329 329 329 329 329
323 322 322 322 322 321 320 319 320 322 322 321 321 321 322 323 323 323 323 323 324 324 325 326 325 325 325 325 326 326 326 326 326 326 326 325 326 326 326 327 328 328 328 328 328 329 328 328 329 329 329 328 328 328 328 329 331 330 328 329 329 329 329
321 320 320 320 320 319 319 320 321 320 320 320 321 321 322 322 322 322 322 323 323 324 324 325 325 324 323 324 326 327 326 326 325 326 326 325 325 326 326 326 327 327 327 328 328 328 328 328 328 329 329 328 328 328 328 328 329 329 327 328 329 329 329
319 319 319 319 319 318 319 320 320 319 319 320 320 320 320 320 321 322 322 322 322 322 323 324 324 324 323 324 326 327 326 325 325 325 325 325 325 325 325 326 326 326 326 326 327 327 328 328 328 328 329 329 328 328 328 327 327 327 326 327 328 328 329
317 317 317 318 317 317 319 319 319 319 319 319 318 318 317 318 319 320 320 320 321 321 323 323 323 323 324 325 325 325 325 324 324 324 324 324 324 324 325 324 325 325 325 325 325 326 327 327 327 328 328 328 328 328 328 327 327 326 326 326 327 328 328
316 316 316 316 316 317 317 317 318 318 318 317 318 316 315 315 317 319 318 318 319 320 321 322 323 323 323 324 323 323 324 323 323 323 322 321 321 321 321 321 322 324 324 324 325 325 325 325 325 326 327 328 328 327 327 327 326 325 324 325 325 326 328
316 315 314 314 314 315 316 316 316 316 315 316 316 315 314 315 316 317 316 316 317 319 320 320 321 321 321 322 323 323 322 321 320 320 319 319 319 319 319 318 319 321 322 323 324 324 324 325 325 325 326 327 327 327 326 326 326 326 325 324 325 326 327
314 313 312 312 312 313 315 315 314 314 314 314 314 314 314 314 315 315 314 315 316 317 318 318 318 318 319 320 321 321 320 317 316 316 316 316 317 317 317 317 317 318 319 320 322 324 324 324 325 325 326 326 326 326 326 326 326 326 325 325 325 325 325
311 311 311 311 312 313 313 313 313 313 313 313 313 313 313 313 313 313 314 315 316 316 317 317 317 317 316 317 317 317 317 315 313 314 314 315 315 315 316 317 316 316 316 316 318 322 324 325 325 325 325 325 325 325 325 325 325 325 325 325 325 325 325
309 310 310 311 312 312 313 312 312 311 311 311 311 312 312 312 313 313 314 315 316 316 316 317 316 316 315 315 315 314 314 314 313 314 314 314 315 314 313 315 315 315 315 315 316 319 322 323 324 324 324 325 325 325 324 324 324 325 325 325 325 325 325
308 309 309 310 312 312 312 311 310 310 310 310 311 312 312 312 313 313 314 314 315 315 315 315 315 315 314 314 314 312 310 311 313 313 312 313 314 313 312 313 313 314 314 314 315 317 318 320 321 322 323 323 324 324 324 323 324 324 324 324 325 325 324
308 309 310 311 311 311 311 310 310 309 310 311 312 312 312 312 313 313 313 313 313 314 314 313 312 313 312 312 312 310 309 310 311 311 310 310 311 312 313 313 313 313 314 314 314 315 316 317 317 318 319 321 322 323 324 324 323 323 323 323 324 323 324
308 309 310 310 310 309 309 309 309 310 310 310 311 311 311 311 311 310 311 311 311 311 310 309 309 311 311 310 310 309 309 310 311 310 309 309 309 311 312 312 313 314 315 315 314 314 315 315 315 315 316 317 319 320 321 322 322 323 323 323 323 323 323
307 308 308 308 308 308 308 308 308 308 308 309 308 308 309 308 308 308 308 308 308 307 306 306 307 309 309 309 308 306 307 308 309 309 308 307 308 310 310 311 312 313 314 314 314 313 313 313 313 314 314 314 315 316 317 317 318 320 322 322 323 323 322
306 306 306 307 307 307 307 307 307 307 306 306 306 306 307 307 306 306 306 306 305 305 304 305 306 307 308 308 307 305 304 304 304 305 305 305 306 308 308 309 310 312 312 313 314 313 312 312 311 311 312 312 312 313 314 314 314 315 317 319 320 319 318
305 305 305 306 306 306 307 306 306 305 305 304 305 305 305 305 304 304 304 304 304 303 303 304 305 306 306 306 306 305 303 302 302 302 302 302 303 303 305 307 309 310 311 312 313 313 312 311 310 310 310 310 310 310 311 312 312 313 313 314 314 312 312
303 303 304 304 305 305 305 304 304 303 303 304 304 303 303 303 302 302 302 302 302 302 302 302 303 304 303 303 303 303 302 301 300 300 300 301 302 302 302 303 305 307 309 310 311 311 312 311 309 309 309 308 308 308 308 309 310 310 311 311 310 309 310
302 302 302 303 304 304 303 303 302 302 302 302 302 301 301 301 301 301 301 301 301 301 301 301 302 302 302 301 301 301 300 300 300 299 299 299 300 300 301 301 302 303 305 307 308 309 310 310 310 308 308 307 307 307 306 306 306 307 308 309 309 309 310
301 301 302 303 303 302 302 301 301 301 301 301 301 300 300 300 300 300 300 300 300 300 300 301 301 301 301 301 301 300 300 300 299 299 299 299 299 299 299 300 300 301 302 304 305 307 308 309 309 307 306 305 306 306 306 305 305 306 306 307 307 308 308
301 302 302 303 302 301 301 300 300 300 300 300 300 300 300 299 299 299 299 300 300 300 300 300 300 300 301 300 300 300 300 300 300 299 299 299 299 298 298 298 298 299 300 301 302 304 305 306 305 305 304 304 304 305 304 304 305 305 305 306 306 307 307
302 302 302 302 301 300 300 300 300 300 300 300 299 299 299 299 299 299 299 299 299 299 299 299 300 300 300 300 300 300 300 300 300 299 299 299 299 298 298 298 298 298 298 298 299 301 302 302 302 302 302 302 303 303 303 303 303 303 303 304 304 304 305
302 302 301 300 300 300 300 300 299 299 299 299 299 299 299 299 299 299 299 299 299 300 300 300 300 300 300 300 300 300 300 300 299 299 299 299 299 298 298 298 297 297 297 297 298 298 299 300 300 300 301 301 301 301 301 302 302 302 302 302 302 302 302
301 300 300 299 299 299 299 299 299 299 299 299 299 299 299 300 300 300 299 299 299 300 300 300 300 300 300 299 299 299 299 299 299 299 299 299 299 298 298 298 297 297 298 297 297 297 297 298 299 299 300 300 300 300 300 301 301 301 301 301 300 300 301
299 299 299 299 299 299 299 299 299 299 299 299 299 299 299 299 299 299 299 299 299 299 300 300 300 299 299 299 299 299 299 299 298 298 298 298 298 298 298 298 298 298 298 298 297 297 297 297 298 299 299 299 299 299 300 300 300 300 300 300 300 300 300
299 298 298 298 298 298 298 298 298 298 298 298 298 299 299 298 298 298 298 298 298 298 299 299 299 299 298 298 298 298 298 298 298 298 298 298 298 298 298 298 298 298 297 297 297 297 297 297 297 298 299 299 299 299 299 299 299 299 299 299 299 299 299
298 298 298 297 297 297 296 297 297 298 298 298 298 298 298 297 297 297 297 297 297 297 298 298 298 298 297 297 297 297 297 297 297 297 297 297 297 297 297 298 298 297 297 297 297 297 297 297 297 298 298 299 298 298 298 299 299 299 299 298 298 298 298
297 297 297 297 297 296 296 296 297 298 298 298 298 297 297 297 297 296 296 296 296 296 296 297 297 296 296 296 296 296 296 296 296 296 296 296 296 296 297 297 297 297 296 297 297 297 297 297 297 298 298 298 298 298 298 298 298 298 298 298 297 297 298

ECMWFFLT1_925_thetae_117.txt.gz
Theta_e
333 333 332 331 330 331 331 330 329 328 328 327 327 326 326 327 327 327 327 327 327 327 327 326 327 327 327 327 327 327 328 328 328 329 329 329 330 330 330 331 330 327 327 330 331 331 331 331 331 331 331 331 331 331 331 331 331 330 329 329 329 329 329
331 331 331 331 331 331 330 329 328 327 327 327 326 326 326 327 327 327 327 327 327 327 327 327 327 327 327 327 327 327 327 327 328 329 330 330 330 330 330 330 330 328 327 328 329 329 329 330 330 331 331 332 331 331 331 331 331 330 330 330 329 329 329
330 330 331 331 330 330 329 328 327 327 327 326 326 326 326 326 326 327 327 327 326 326 327 327 328 327 328 328 328 328 327 326 327 328 329 329 329 330 330 330 329 330 328 328 328 328 329 330 330 330 332 333 333 332 331 331 330 330 330 330 329 329 329
330 330 330 329 329 328 328 327 326 326 326 326 326 326 325 325 326 326 326 326 326 327 327 327 327 327 328 328 327 327 327 327 327 327 328 329 329 329 329 329 329 329 329 329 328 327 328 329 329 330 331 332 333 333 332 331 329 329 330 330 330 329 329
329 329 328 327 327 327 326 326 325 325 325 325 325 325 324 324 324 325 325 326 326 326 326 327 327 327 327 327 327 327 327 327 328 327 328 328 328 328 328 328 328 328 329 330 329 328 328 328 329 330 330 331 332 333 332 331 330 329 329 330 330 329 328
328 327 327 326 326 325 325 325 325 324 324 324 324 323 323 323 323 324 324 325 325 324 324 325 326 326 327 327 327 327 327 327 327 327 327 327 327 328 328 328 328 328 328 329 329 329 329 329 329 330 330 330 331 333 332 330 330 329 329 330 330 329 329
326 326 325 325 325 324 324 323 323 323 323 323 323 322 322 322 323 323 323 324 324 324 324 324 324 325 326 326 326 327 327 327 327 326 326 327 327 327 328 329 329 328 329 329 329 329 329 329 329 330 331 331 331 332 332 330 330 330 330 330 330 330 329
325 324 324 324 324 323 322 322 322 322 322 322 321 321 321 322 322 322 322 323 324 324 324 324 324 325 326 326 326 326 327 327 327 326 326 327 327 327 327 327 327 328 328 328 328 329 329 329 329 330 330 330 331 331 331 331 331 330 330 330 330 330 329
324 324 323 323 323 322 321 320 321 321 321 321 321 321 322 322 322 322 322 323 324 324 324 323 324 324 325 326 325 325 326 326 326 326 325 326 326 326 326 326 327 328 328 328 328 328 328 329 329 330 330 329 330 332 332 332 332 331 330 329 330 330 330
323 323 322 321 321 320 319 319 320 321 321 320 320 321 321 322 322 322 322 323 323 324 323 323 323 323 324 325 325 325 325 326 326 326 325 326 326 326 326 326 327 328 327 327 328 328 328 329 329 329 329 329 330 331 331 332 333 332 331 330 330 330 330
321 321 321 320 319 319 318 319 320 320 320 320 321 321 321 321 322 322 321 321 322 322 322 322 322 323 324 325 325 325 325 326 326 325 325 325 326 326 326 325 326 327 326 326 327 328 328 329 329 329 329 329 329 329 330 332 332 331 331 330 330 330 330
320 320 320 319 318 318 318 319 319 319 319 319 320 319 318 320 321 319 318 318 320 321 321 322 322 323 324 324 324 324 324 325 325 325 325 325 325 325 325 325 325 325 326 326 327 327 327 327 328 328 328 329 329 329 330 330 331 330 330 330 330 329 330
319 319 319 318 318 318 319 319 319 318 318 317 316 315 315 316 317 316 315 317 318 319 320 322 322 321 322 323 323 323 323 323 323 322 322 322 323 323 323 322 322 323 324 325 326 326 326 326 326 327 327 328 329 329 329 329 330 330 329 329 330 330 329
317 317 318 318 318 318 318 319 318 317 317 316 314 313 314 314 314 314 315 316 317 318 319 320 320 319 320 321 320 320 320 319 319 319 320 320 320 320 321 320 320 320 321 323 324 325 325 325 326 326 326 327 328 328 329 329 329 329 328 328 329 329 329
316 316 317 318 318 318 318 318 316 316 316 315 313 314 314 314 313 314 316 316 317 317 317 318 319 319 319 319 318 317 316 316 317 317 317 318 318 318 319 319 318 318 318 320 321 323 324 325 325 326 326 326 327 327 328 329 329 329 328 327 326 327 328
315 315 316 317 318 317 317 316 315 314 314 313 313 313 314 314 313 313 315 316 315 314 315 316 317 317 317 317 316 315 314 314 315 314 315 315 316 316 317 317 317 316 316 317 318 320 322 324 324 325 325 326 326 326 326 327 328 328 327 325 325 326 326
314 315 315 316 316 315 314 314 313 313 313 312 312 312 312 312 312 311 312 313 312 312 313 313 314 314 314 314 313 313 313 313 313 313 313 313 314 314 315 315 315 315 314 314 315 316 318 321 323 324 325 326 326 325 326 326 326 326 326 325 325 325 326
313 314 315 314 313 313 313 313 312 312 311 311 311 310 310 311 310 310 310 310 311 311 311 311 312 312 311 312 312 312 312 312 313 313 313 313 313 313 313 313 313 313 313 312 312 313 314 317 320 322 323 324 325 325 325 325 325 325 325 326 326 325 325
313 313 313 312 312 312 312 311 310 310 310 309 309 309 309 309 309 308 308 308 309 309 309 309 310 310 311 311 312 312 312 312 313 312 312 312 312 312 313 313 313 313 312 311 310 310 311 313 315 316 317 320 323 324 325 325 325 324 325 325 325 325 324
311 311 310 311 310 310 310 310 309 309 309 308 308 308 308 308 307 307 306 306 306 307 307 308 308 309 310 311 310 310 310 311 311 311 310 310 311 312 313 312 312 312 312 311 309 309 309 309 310 311 312 315 318 322 323 324 324 324 323 324 324 324 324
308 309 309 309 308 308 309 308 308 308 307 307 307 306 306 306 305 305 305 305 305 305 306 307 307 309 310 310 309 308 308 309 309 309 309 309 310 311 312 312 311 311 311 311 309 308 307 307 308 308 310 311 313 317 319 320 321 322 323 323 323 324 324
307 307 307 307 306 306 306 306 306 306 305 305 305 304 305 305 305 304 305 305 305 305 306 306 307 309 310 309 309 308 308 308 308 308 308 308 309 309 311 311 310 310 310 310 309 308 307 307 306 306 307 308 309 311 314 316 317 319 320 320 320 320 321
305 306 305 305 305 305 304 305 305 304 304 304 304 304 305 306 306 305 305 306 306 305 304 304 306 308 309 308 307 306 305 305 305 305 305 306 306 307 308 309 308 309 310 310 309 308 307 306 306 305 305 306 306 307 309 311 313 314 315 314 312 313 315
304 305 304 304 304 304 304 304 304 303 303 303 303 304 305 305 306 305 305 304 304 303 302 302 304 306 306 306 304 303 303 303 303 303 303 303 304 304 305 306 306 308 309 309 309 309 307 306 306 305 305 305 305 305 305 307 309 310 310 309 307 308 309
302 303 303 303 303 303 303 303 302 302 302 302 302 303 303 303 303 303 303 303 302 301 301 302 303 304 304 303 302 302 301 302 302 302 302 302 302 302 303 304 304 306 306 307 307 308 308 307 306 306 305 305 305 305 305 305 305 306 307 306 305 304 305
303 302 302 301 301 301 301 302 302 301 301 301 302 302 302 302 302 301 302 301 301 300 300 301 302 302 302 301 301 301 300 301 301 301 301 301 301 301 301 302 302 303 304 306 306 306 307 308 307 306 305 305 304 305 305 305 304 304 304 304 304 303 302
304 304 303 303 302 301 302 302 301 301 301 301 301 301 301 301 301 301 301 301 300 300 300 301 301 301 301 300 300 300 300 300 300 300 300 300 300 300 300 301 301 301 301 303 304 305 306 307 307 306 305 305 304 303 303 303 303 303 303 303 302 302 302
303 303 303 303 303 302 302 301 301 301 301 300 300 300 300 300 300 300 300 300 300 300 300 300 300 300 300 300 300 300 300 300 300 300 300 299 299 298 298 299 300 300 300 301 302 303 304 305 306 306 305 304 304 302 301 301 302 302 302 302 301 301 301
302 302 302 302 302 301 301 300 300 300 300 300 299 299 299 299 299 300 300 300 300 300 300 300 300 300 300 299 300 300 301 300 300 300 300 299 299 298 297 298 298 298 299 299 300 301 302 303 305 305 305 304 304 303 302 301 301 301 301 301 301 301 301
301 301 301 301 300 300 299 299 299 299 299 299 299 299 299 300 300 300 300 299 299 299 299 299 299 299 299 299 300 301 300 300 300 300 299 299 299 298 297 297 297 298 298 299 299 299 300 302 303 304 304 304 303 303 303 302 301 301 301 300 300 300 300
301 300 300 300 299 299 299 299 299 299 299 299 299 299 299 299 300 300 299 298 298 298 298 298 298 298 298 298 299 300 300 300 300 300 299 299 299 298 297 297 297 298 298 298 299 299 299 300 302 302 303 303 303 302 302 302 302 302 302 301 301 301 300
301 300 300 299 299 299 299 299 299 299 299 298 298 298 299 299 299 299 298 298 298 298 298 298 297 297 297 297 298 299 300 299 299 299 299 299 298 298 297 297 297 297 298 298 298 298 298 299 300 300 301 301 302 302 301 301 302 302 302 302 302 302 301
301 300 299 299 298 299 299 299 299 298 298 298 298 298 298 298 298 298 298 298 297 297 297 297 297 297 297 297 297 298 298 299 299 299 298 298 298 298 297 297 297 297 297 298 298 298 298 298 298 299 299 299 300 300 301 301 301 301 302 302 302 302 302
300 300 299 299 298 299 299 298 298 297 297 297 297 297 298 298 298 298 297 297 297 296 296 296 296 296 296 296 296 296 297 297 298 298 298 298 298 298 297 297 296 297 297 297 297 297 297 298 298 297 298 298 298 299 300 301 301 301 301 301 301 301 302
300 299 299 299 298 298 298 297 297 296 297 297 297 297 298 298 298 297 297 296 296 295 295 295 295 295 296 295 295 295 295 296 296 297 297 297 297 297 297 296 296 296 297 296 297 297 297 297 297 297 297 297 297 298 299 300 300 300 300 300 300 300 301
299 299 298 298 298 298 297 297 296 296 296 297 297 297 297 297 297 297 297 296 295 294 294 294 294 294 294 294 294 295 295 295 295 296 296 296 296 296 296 296 296 296 296 296 296 296 296 297 297 297 296 296 297 298 299 300 300 300 300 300 300 300 300
298 298 298 297 297 297 297 296 296 295 296 297 297 296 297 297 297 297 296 296 295 294 293 293 292 292 293 294 294 294 295 295 295 295 295 295 295 295 295 295 295 296 296 296 295 295 296 296 296 296 296 296 296 297 298 299 299 299 299 299 300 300 300

ECMWFFLT1_925_thetae_123.txt.gz
Theta_e
339 338 338 337 337 336 335 334 332 331 330 330 330 330 330 330 330 330 331 331 330 331 330 330 331 331 331 331 331 332 332 332 332 332 332 333 333 333 333 334 334 332 330 330 331 331 331 332 332 331 331 333 333 332 330 330 332 332 332 333 333 334 335
337 337 337 336 336 335 334 332 331 331 330 330 330 330 329 329 330 330 330 331 330 330 330 330 331 331 331 331 331 332 332 331 331 332 332 333 333 333 332 333 333 332 331 331 331 330 330 331 331 331 330 332 334 333 331 330 330 330 331 333 334 334 334
336 336 336 336 335 333 332 331 331 331 330 330 330 330 329 329 330 330 330 330 330 330 330 329 330 330 330 331 331 331 331 331 331 331 332 333 333 332 332 332 332 333 332 332 331 330 331 330 330 331 330 332 332 333 334 332 330 331 330 332 333 333 333
336 336 335 334 333 332 331 330 329 330 330 330 329 329 329 329 329 329 329 329 329 329 329 329 329 329 330 330 331 331 331 331 331 331 332 333 332 331 332 332 332 332 332 332 331 330 330 329 330 330 331 332 331 330 333 331 329 332 331 331 331 331 332
335 334 333 332 331 330 330 329 328 328 329 329 329 329 329 328 328 328 328 328 328 328 328 327 328 328 329 330 330 330 330 330 330 330 331 332 331 331 331 331 331 331 330 330 331 331 331 330 329 329 330 332 331 330 331 331 331 332 332 331 330 331 332
333 332 332 331 330 329 328 328 328 328 328 328 328 328 327 327 327 327 327 327 327 326 326 326 327 328 329 330 330 330 330 330 330 330 330 331 331 330 330 330 330 331 330 330 331 331 330 329 328 328 329 330 330 330 330 332 332 332 332 332 330 330 332
332 331 330 329 329 328 328 328 328 327 327 327 327 327 326 325 325 326 326 326 325 325 325 326 327 327 328 329 330 329 329 329 329 329 329 329 329 329 328 328 328 329 330 329 329 330 330 329 329 328 329 330 330 329 329 331 332 331 333 332 330 330 331
330 329 328 328 327 327 328 327 326 326 326 326 326 325 325 324 324 325 324 324 324 324 324 325 326 326 328 329 328 328 327 327 328 327 327 327 327 326 326 326 326 326 327 327 327 329 330 330 330 329 330 329 329 329 328 329 331 331 332 331 330 330 330
329 327 327 326 326 326 326 325 324 325 325 325 324 324 323 323 323 323 323 323 323 323 324 324 325 326 327 327 326 325 325 325 326 325 324 324 325 325 325 324 324 324 324 324 325 327 327 329 330 330 330 330 331 330 329 328 329 329 331 330 330 331 330
327 326 326 326 325 325 324 324 324 324 323 323 323 323 323 323 323 323 323 322 322 323 323 323 324 325 325 324 324 324 324 324 325 324 323 323 323 323 323 322 322 323 323 323 324 325 325 326 327 328 329 329 329 330 329 328 328 327 329 329 329 330 331
325 325 325 325 324 323 323 323 323 323 322 322 322 322 322 322 322 322 322 322 322 322 322 322 323 323 323 323 322 322 322 322 323 323 322 322 322 321 321 321 321 321 321 322 322 323 323 324 324 325 327 328 328 328 327 328 328 328 329 328 327 328 329
324 324 324 323 323 322 322 322 322 321 321 321 321 321 322 322 322 322 321 322 322 322 322 321 321 321 321 321 321 321 321 321 321 321 320 320 320 320 320 320 320 320 320 320 321 321 322 322 323 324 325 326 328 328 328 328 328 328 329 330 327 325 326
323 323 322 322 322 321 321 321 321 320 320 320 321 321 321 322 321 321 321 321 321 321 321 320 320 320 320 320 320 320 320 320 320 320 319 319 319 319 319 318 318 318 319 319 319 320 320 321 322 322 323 324 325 327 328 329 328 327 327 329 328 326 325
321 321 321 321 320 320 320 320 320 320 319 320 320 320 321 321 321 320 320 320 320 320 320 319 319 319 319 319 319 319 319 319 319 319 318 318 318 317 317 317 317 317 317 318 318 319 319 320 321 321 322 322 323 325 326 328 328 327 326 328 327 325 324
321 321 320 320 320 319 319 319 319 319 319 319 320 320 320 320 320 319 319 319 319 319 318 318 318 318 318 318 319 319 318 318 318 318 318 317 317 316 316 316 316 316 316 317 317 317 318 319 320 320 321 321 322 324 324 325 326 327 327 326 324 322 321
320 320 319 319 319 319 319 319 318 319 318 319 319 319 319 319 318 319 318 318 318 318 318 318 318 317 317 317 318 318 318 317 317 318 317 317 316 315 315 315 314 315 315 315 316 316 317 318 319 320 320 320 321 322 322 322 323 324 324 323 321 319 318
319 319 319 319 318 318 318 318 318 318 318 318 318 318 318 318 318 318 318 317 317 317 317 317 317 317 317 317 317 317 317 317 317 317 316 316 315 314 314 313 313 313 313 314 314 314 315 316 316 318 318 318 320 320 320 319 319 319 320 319 318 318 317
318 318 318 318 318 317 317 317 317 318 318 318 318 318 317 317 317 317 317 316 316 316 316 316 316 316 316 316 316 316 316 316 316 316 315 315 314 313 313 312 312 311 311 311 311 311 313 313 314 315 316 317 318 318 318 318 317 317 317 316 316 315 315
317 317 317 317 317 317 316 316 317 317 317 317 317 317 316 316 316 316 316 315 315 314 314 315 315 315 315 315 315 315 315 315 315 315 314 314 314 313 312 312 311 310 310 310 309 309 310 311 311 311 313 314 316 316 317 316 316 316 315 315 314 314 313
317 316 316 316 316 316 316 316 316 317 317 316 316 316 316 315 315 314 314 313 313 312 311 312 312 313 314 314 314 314 314 314 314 314 313 313 313 313 312 311 311 310 309 309 309 308 308 309 309 308 309 311 313 314 315 315 315 314 314 313 313 313 312
316 316 315 316 316 316 315 315 316 316 316 316 315 315 315 314 314 313 312 311 311 309 309 309 311 311 312 313 313 312 312 312 312 313 312 311 311 312 311 310 310 310 309 308 308 307 307 308 307 307 307 308 309 311 312 313 312 312 312 311 310 311 311
316 315 315 315 315 315 315 315 315 315 315 315 314 314 314 313 312 311 310 309 308 307 306 307 308 309 310 311 311 311 310 310 310 311 310 310 309 309 309 309 309 308 308 308 308 307 307 307 307 306 305 305 307 308 309 310 310 310 310 309 308 308 309
315 315 315 315 315 315 315 315 315 314 314 314 314 313 313 312 311 310 309 308 307 305 304 305 306 307 308 309 310 309 308 308 308 309 309 308 308 307 306 307 307 307 307 308 309 308 307 306 306 306 305 304 305 305 306 308 308 308 308 308 307 307 307
315 315 315 315 315 315 315 315 314 314 314 313 313 312 312 311 310 309 308 307 306 304 303 304 305 306 306 307 308 308 307 306 307 307 307 307 307 306 306 305 306 307 307 307 308 308 308 307 307 306 305 305 304 304 304 305 306 307 307 307 306 306 305
315 315 315 315 315 315 314 314 314 313 313 312 312 311 311 310 309 308 307 306 306 304 303 303 304 305 306 306 306 306 305 305 305 305 306 307 306 305 305 305 305 306 306 306 306 307 308 308 308 307 306 305 305 304 304 304 305 306 306 306 306 305 305
315 315 315 315 314 314 314 313 313 312 312 311 311 310 310 309 308 307 306 305 305 303 302 303 304 304 305 306 306 306 305 304 304 304 304 305 306 305 304 304 304 305 305 305 305 306 307 308 308 306 306 306 305 305 304 304 304 305 305 305 305 305 305
315 315 314 314 314 313 313 312 312 311 311 310 310 309 309 308 307 306 305 304 303 302 302 303 303 304 305 305 306 306 306 304 303 302 302 303 303 304 304 303 303 303 303 303 304 304 306 307 307 306 306 306 305 305 305 304 304 304 305 305 304 305 305
314 314 314 313 313 313 312 312 311 311 310 310 309 308 307 307 306 305 304 303 302 301 301 302 303 303 304 305 305 306 306 305 304 302 301 301 301 301 302 303 302 301 301 301 302 303 305 306 307 306 306 305 305 305 305 304 304 304 304 304 304 304 304
314 313 313 313 312 312 311 310 310 309 309 309 308 307 307 306 305 304 304 303 302 300 300 302 303 303 304 305 305 305 305 305 304 303 302 301 299 299 299 300 300 300 299 299 301 302 304 305 307 307 306 306 304 304 305 304 303 303 303 304 304 304 304
313 313 312 312 311 310 310 309 308 308 308 308 307 307 306 306 305 304 303 302 301 300 299 300 302 303 303 304 305 305 305 304 304 304 303 302 300 298 297 297 298 298 298 298 300 302 303 305 306 306 306 305 304 304 304 305 304 303 303 304 304 303 303
312 312 311 310 310 309 308 308 307 307 307 306 306 305 305 304 303 303 302 301 300 299 298 299 301 303 303 304 305 305 304 304 304 303 303 302 301 299 298 297 297 297 297 298 299 301 302 304 305 305 305 305 304 304 303 304 304 303 303 303 304 304 303
312 311 310 309 309 308 307 307 306 306 306 305 304 304 304 303 303 303 302 301 301 299 297 296 299 302 303 303 304 304 304 304 304 303 302 302 301 300 299 297 297 297 297 297 298 299 300 302 303 303 303 303 303 304 304 303 303 303 303 303 303 304 303
310 310 309 308 308 307 306 306 306 305 305 304 304 304 303 303 303 302 301 301 300 300 298 296 295 299 302 303 304 304 304 304 303 302 302 301 301 300 299 298 297 296 297 297 297 298 299 300 301 301 301 301 301 302 303 303 303 303 302 302 303 303 303
309 308 307 307 306 306 306 305 305 305 304 304 304 304 303 302 301 300 299 299 297 297 297 296 294 295 298 301 302 303 303 303 303 302 301 301 300 299 299 298 297 296 296 296 297 297 297 298 299 299 299 300 300 301 302 303 303 303 302 302 302 303 303
308 307 306 306 306 306 305 305 305 304 304 304 304 303 303 302 301 300 299 299 297 295 294 294 294 293 295 297 299 301 301 301 302 302 301 300 300 299 299 298 297 296 296 297 297 297 297 297 298 298 298 299 300 301 302 302 303 302 302 302 302 302 302
307 306 306 305 305 305 305 305 304 304 304 304 304 303 302 302 301 301 300 299 299 297 295 294 293 293 294 295 297 299 299 300 300 301 300 299 299 299 299 298 297 296 297 297 297 298 297 298 298 298 298 298 299 300 301 301 302 302 302 301 302 302 302
306 306 305 305 305 304 304 304 304 304 304 304 303 303 302 302 302 301 301 300 299 298 297 295 293 293 293 294 295 296 297 298 299 299 299 298 298 298 297 297 297 297 297 298 298 298 298 298 298 298 298 298 298 299 300 301 301 301 301 301 301 301 302